Location: Chuathbaluk
(61.5726°N, 159.2454°W)
Time: 14:29:33
(UTC+00:00)

DELFI C3 - Pass Details

Date: 26 January 2021
Orbit: 531 x 550 km, 97.4° (Epoch: 04 March)

Event Time Altitude Azimuth Distance (km) Brightness Sun altitude
Exits shadow 05:29:13 66° 64° (ENE) 608 ? -21.0°
Drops below altitude 10° 05:33:08 10° 347° (NNW) 1,845 ? -21.5°
Sets 05:35:17 0° 345° (NNW) 2,744 ? -21.8°
